Tracking 19706 objects as of 16-Jun-2019
HD Live streaming from Space Station
objects crossing your sky now

FLOCK 4A 20

Track FLOCK 4A 20 now!
10-day predictions
FLOCK 4A 20 is classified as:


NORAD ID: 44091
Int'l Code: 2019-018P
Perigee: 497.5 km
Apogee: 517.7 km
Inclination: 97.5 °
Period: 94.6 minutes
Semi major axis: 6878 km
RCS: Unknown
Launch date: April 1, 2019
Source: United States (US)
Launch site: SRIHARIKOTA (SRI)
aabbcc
Your satellite tracking list
Your tracking list is empty




NASA's NSSDC Master Catalog

Two Line Element Set (TLE):
1 44091U 19018P   19167.15869310  .00001235  00000-0  57447-4 0  9996
2 44091  97.4573 227.0700 0014673  27.9883 332.2139 15.21771049 11520
Source of the keplerian elements: AFSPC